Track STARLINK 1059 now! 10-day predictions STARLINK 1059 is classified as:
1 44764U 19074BD 22138.49691367 .00000854 00000-0 76213-4 0 9997 2 44764 53.0564 331.9338 0001589 63.8017 296.3136 15.06393761138955